Regional Weather Roundup
Issued by NWS

Home | Current Version | Previous Version | Graphics & Text | Print | Product List | Glossary On
Versions: 1 2 3 4 5 6 7 8 9 10 11 12 13 14 15 16 17 18 19 20 21 22 23 24 25 26 27 28 29 30 31 32 33 34 35 36 37 38 39 40 41 42 43 44 45 46 47 48 49 50
000
ASUS43 KMKX 212000
RWRWI

WISCONSIN REGIONAL WEATHER ROUNDUP
NATIONAL WEATHER SERVICE MILWAUKEE/SULLIVAN WI
300 PM CDT THU AUG 21 2014

NOTE: "FAIR" INDICATES FEW OR NO CLOUDS BELOW 12,000 FEET WITH NO
SIGNIFICANT WEATHER AND/OR OBSTRUCTIONS TO VISIBILITY.

WIZ001-002-006>008-014>016-023>028-212100-
NORTHWEST WISCONSIN

CITY           SKY/WX    TMP DP  RH WIND       PRES   REMARKS
SUPERIOR ARPT  CLOUDY    62  61  96 E10G22    29.89R
ASHLAND        CLOUDY    66  63  90 NE9       29.90S
HAYWARD        CLOUDY    73  68  84 E8        29.88R
SIREN          CLOUDY    74  69  83 SE6       29.83F
RICE LAKE      CLOUDY    75  68  78 SE8       29.86S
LADYSMITH      CLOUDY    75  67  76 E8        29.90S
EAU CLAIRE     NOT AVBL
MENOMONIE      CLOUDY    76  69  80 E9        29.83S
NEW RICHMOND   CLOUDY    73  70  88 E8        29.82S
OSCEOLA        CLOUDY    74  71  93 E13       29.83F
$$

WIZ003>005-009-010-017-018-212100-
NORTH CENTRAL WISCONSIN

CITY           SKY/WX    TMP DP  RH WIND       PRES   REMARKS
WOODRUFF       CLOUDY    72  66  80 SE8       29.93S
RHINELANDER    CLOUDY    68  63  84 E9        29.94S
EAGLE RIVER    CLOUDY    70  63  79 SE9       29.94F
LAND O LAKES   CLOUDY    68  63  83 SE8       29.96S
PHILLIPS       CLOUDY    70  66  86 SE8       29.91R
TOMAHAWK       CLOUDY    69  64  84 SE6       29.93S
MEDFORD        CLOUDY    69  66  92 E6        29.91R
MERRILL        CLOUDY    68  65  92 SE7       29.93R
$$

WIZ029-030-035-036-043>047-212100-
CENTRAL WISCONSIN

CITY           SKY/WX    TMP DP  RH WIND       PRES   REMARKS
WAUSAU         CLOUDY    68  65  90 SE12      29.92R
MOSINEE        CLOUDY    68  66  94 SE7       29.93R
MARSHFIELD     MOSUNNY   77  69  76 S12       29.89S
STEVENS POINT  CLOUDY    68  65  91 SE9       29.93R
WAUPACA        CLOUDY    72  69  93 SE6       29.93R
WAUTOMA        NOT AVBL
WISC RAPIDS    PTSUNNY   79  69  71 SE10      29.90F HX  81
CAMP DOUGLAS   NOT AVBL
$$

WIZ011>013-019>022-031-037>040-048>050-212100-
NORTHEAST WISCONSIN

CITY           SKY/WX    TMP DP  RH WIND       PRES   REMARKS
ANTIGO         CLOUDY    65  64  96 SE9       29.95R FOG
STURGEON BAY   CLOUDY    66  61  82 SE7       29.96F
GREEN BAY      CLOUDY    68  65  90 E9        29.92F
MANITOWOC      LGT RAIN  66  64  94 E7        29.95F
APPLETON       PTSUNNY   70  66  88 SE8       29.94R
CLINTONVILLE   CLOUDY    70  64  83 SE10      29.92S
OSHKOSH        CLOUDY    73  69  87 S3        29.92R
$$

WIZ032>034-041-042-053>061-212100-
SOUTHWEST WISCONSIN

CITY           SKY/WX    TMP DP  RH WIND       PRES   REMARKS
LA CROSSE      PTSUNNY   82  71  69 S7        29.83S HX  86
SPARTA         CLOUDY    79  68  68 SE9       29.86F HX  81
VIROQUA        CLOUDY    77  74  92 SE9       29.88S
BOSCOBEL       CLOUDY    79  72  79 CALM      29.87F HX  82
PRAIRIE DU CHI CLOUDY    78  71  80 E8        29.85F HX  80
PLATTEVILLE    CLOUDY    77  74  91 S15       29.90F
$$

WIZ056-057-062-063-064-067-068-212100-
SOUTH CENTRAL WISCONSIN

CITY           SKY/WX    TMP DP  RH WIND       PRES   REMARKS
BARABOO/DELLS  CLOUDY    74  68  82 SE8       29.89F
LONE ROCK      CLOUDY    81  72  74 S6        29.90R HX  84
WATERTOWN      CLOUDY    73  71  96 SE7       29.92F
MADISON        CLOUDY    77  71  82 S15G21    29.90F
MIDDLETON      CLOUDY    77  74  91 SE12      29.91F
MONROE         CLOUDY    72  72 100 S16       29.91F
JANESVILLE     NOT AVBL
$$

WIZ051-052-058>065-066-070>072-212100-
SOUTHEAST WISCONSIN

CITY           SKY/WX    TMP DP  RH WIND       PRES   REMARKS
MILWAUKEE      CLOUDY    72  69  90 CALM      29.95R
WAUKESHA       PTSUNNY   70  68  94 E6        29.95F
MILWAUKEE/TIMM LGT RAIN  70  66  88 SE6       29.95F FOG
RACINE         CLOUDY    73  70  90 S5        29.98R FOG
BURLINGTON     LGT RAIN  71  69  96 S3        29.97S
KENOSHA        LGT RAIN  73  71  93 S6        29.97R
FOND DU LAC    CLOUDY    75  69  81 S7        29.91F
SHEBOYGAN      LGT RAIN  68  66  93 E8        29.92F FOG
WEST BEND      CLOUDY    68  64  88 S3        29.94F
JUNEAU         CLOUDY    71  45  38 SE10      29.94F
$$

LSZ147-162-212100-
LAKE SUPERIOR

STATION/POSITION TIME  TEMP    WIND        PRES    WAVE
                       AIR SEA DIR/SP/G            HT/PER
                 (UTC) (F)     (DEG/KT/KT) (MB)    (FT/S)
W MID LAKE BUOY  1850   59 60   60/ 12/ 12 1013.6R   1/ 3
PORT WING        1900   65      40/ 17/ 19 1012.2R
SAXON HARBOR     1940   66      70/  4/ 11 1012.2R
$$

LMZ867-665-643>646-212100-
LAKE MICHIGAN

STATION/POSITION TIME  TEMP    WIND        PRES    WAVE
                       AIR SEA DIR/SP/G            HT/PER
                 (UTC) (F)     (DEG/KT/KT) (MB)    (FT/S)
N MID LAKE BUOY  1750   65 65  110/  4/  6 1014.7F   0
NORTHPORT PIER   1900   66     130/  8/  9 1014.9F
SISTER BAY       1911   70     150/  9/ 12   N/A
ALGOMA LAKESHORE 1823             CALM       N/A
KEWAUNEE LAKESHO 1900   65      90/  2/  3 1014.2F
SHEBOYGAN LAKESH 1900   66 67  100/ 10/ 11 1013.9F
ATWATER BUOY     1900   68      30/  4/  6 1015.8F
MILWAUKEE LAKESH 1900   69      10/  6/  7   N/A
S MID LAKE BUOY  1850   69 68  310/  4/  4 1015.9R   0
KENOSHA   LAKESH 1900   71      70/ 12/ 13 1013.2F
$$

TC  - TEMPERATURE IN CELSIUS
VSB - VISIBILITY IN STATUTE MILES
WCI - WIND CHILL INDEX
HX  - HEAT INDEX




USA.gov is the U.S. government's official web portal to all federal, state and local government web resources and services.